Location: Roland
(31.1349°N, 85.4372°W)
Time: 22:18:12
(UTC+00:00)

Tiros 1 - Pass Details

Date: 25 April 2021
Orbit: 630 x 664 km, 48.4° (Epoch: 05 May)

Event Time Altitude Azimuth Distance (km) Brightness Sun altitude
Rises 13:18:40 0° 264° (W) 2,950 10.0 27.9°
Reaches altitude 10° 13:21:25 10° 278° (W) 2,035 9.3 28.5°
Maximum altitude 13:25:10 23° 332° (NNW) 1,348 8.7 29.3°
Drops below altitude 10° 13:28:55 10° 25° (NNE) 2,022 10.1 30.1°
Sets 13:31:38 0° 40° (NE) 2,927 11.0 30.7°
